Location: Dana
(41.8364°N, 106.7042°W)
Time: 02:29:42
(UTC+00:00)

Transit 4A - Pass Details

Date: 10 May 2026
Orbit: 860 x 980 km, 66.8° (Epoch: 6 June)

Event Time Altitude Azimuth Distance (km) Brightness Sun altitude
Rises 14:51:31 0° 172° (S) 3,513 11.1 31.7°
Reaches altitude 10° 14:54:23 10° 160° (SSE) 2,597 10.6 32.3°
Maximum altitude 14:59:14 26° 106° (ESE) 1,758 11.6 33.2°
Drops below altitude 10° 15:04:13 10° 53° (NE) 2,678 11.1 34.1°
Sets 15:07:12 0° 41° (NE) 3,646 11.4 34.6°
